Time,TemperatureF,DewpointF,PressureIn,WindDirection,WindDirectionDegrees,WindSpeedMPH,WindSpeedGustMPH,Humidity,HourlyPrecipIn,Conditions,Clouds,dailyrainin,SoftwareType,DateUTC
2013-05-10 00:02:00,70.0,66.0,29.98,WNW,302,3.0,7.0,87,0.12,,,0.12,,2013-05-10 05:02:00,
2013-05-10 00:12:00,70.0,66.0,29.98,WNW,302,3.0,7.0,87,0.12,,,0.12,,2013-05-10 05:12:00,
2013-05-10 00:22:00,68.0,65.0,29.96,WNW,302,0.0,2.0,90,0.15,,,0.15,,2013-05-10 05:22:00,
2013-05-10 00:32:00,68.0,66.0,29.95,SSE,147,5.0,8.0,92,0.16,,,0.16,,2013-05-10 05:32:00,
2013-05-10 00:42:00,68.0,66.0,29.98,South,175,7.0,11.0,93,0.11,,,0.17,,2013-05-10 05:42:00,
2013-05-10 00:52:00,68.0,66.0,29.98,South,175,7.0,11.0,93,0.11,,,0.17,,2013-05-10 05:52:00,
2013-05-10 01:01:00,69.0,67.0,29.97,SW,219,9.0,19.0,94,0.05,,,0.18,,2013-05-10 06:01:00,
2013-05-10 01:12:00,69.0,67.0,29.97,SW,219,9.0,19.0,94,0.05,,,0.18,,2013-05-10 06:12:00,
2013-05-10 01:21:00,68.0,65.0,29.95,SSE,156,10.0,20.0,89,0.05,,,0.20,,2013-05-10 06:21:00,
2013-05-10 01:32:00,68.0,65.0,29.94,SSE,166,9.0,15.0,90,0.06,,,0.22,,2013-05-10 06:32:00,
2013-05-10 01:42:00,68.0,65.0,29.94,SSE,166,9.0,15.0,90,0.06,,,0.22,,2013-05-10 06:42:00,
2013-05-10 01:51:00,68.0,65.0,29.91,South,169,11.0,20.0,91,0.07,,,0.24,,2013-05-10 06:51:00,
2013-05-10 02:02:00,67.0,65.0,29.89,SSW,194,18.0,26.0,92,0.08,,,0.26,,2013-05-10 07:02:00,
2013-05-10 02:12:00,67.0,65.0,29.89,SSW,194,18.0,26.0,92,0.08,,,0.26,,2013-05-10 07:12:00,
2013-05-10 02:22:00,68.0,66.0,29.91,SSW,211,15.0,27.0,93,0.07,,,0.27,,2013-05-10 07:22:00,
2013-05-10 02:31:00,68.0,66.0,29.93,SSW,194,15.0,22.0,92,0.06,,,0.28,,2013-05-10 07:31:00,
2013-05-10 02:42:00,68.0,66.0,29.95,South,176,12.0,21.0,92,0.04,,,0.28,,2013-05-10 07:42:00,
2013-05-10 02:52:00,68.0,66.0,29.95,South,176,12.0,21.0,92,0.04,,,0.28,,2013-05-10 07:52:00,
2013-05-10 03:02:00,67.0,64.0,29.95,SSW,193,8.0,17.0,91,0.03,,,0.28,,2013-05-10 08:02:00,
2013-05-10 03:12:00,67.0,64.0,29.95,SSW,193,8.0,17.0,91,0.03,,,0.28,,2013-05-10 08:12:00,
2013-05-10 03:22:00,67.0,64.0,29.94,SSE,160,11.0,19.0,89,0.04,,,0.31,,2013-05-10 08:22:00,
2013-05-10 03:32:00,66.0,63.0,29.90,South,178,17.0,24.0,90,0.04,,,0.32,,2013-05-10 08:32:00,
2013-05-10 03:42:00,66.0,63.0,29.90,South,178,17.0,24.0,90,0.04,,,0.32,,2013-05-10 08:42:00,
2013-05-10 03:52:00,65.0,62.0,29.85,ESE,115,12.0,25.0,89,0.06,,,0.34,,2013-05-10 08:52:00,
2013-05-10 04:01:00,65.0,62.0,29.82,SE,143,13.0,20.0,90,0.06,,,0.35,,2013-05-10 09:01:00,
2013-05-10 04:11:00,65.0,62.0,29.82,SE,143,13.0,20.0,90,0.06,,,0.35,,2013-05-10 09:11:00,
2013-05-10 04:21:00,65.0,62.0,29.85,South,169,9.0,17.0,90,0.05,,,0.36,,2013-05-10 09:21:00,
2013-05-10 04:32:00,65.0,61.0,29.83,SSE,156,6.0,13.0,88,0.05,,,0.37,,2013-05-10 09:32:00,
2013-05-10 04:42:00,65.0,61.0,29.83,SSE,156,6.0,13.0,88,0.05,,,0.37,,2013-05-10 09:42:00,
2013-05-10 04:52:00,66.0,61.0,29.84,West,270,4.0,10.0,85,0.04,,,0.38,,2013-05-10 09:52:00,
2013-05-10 05:03:00,66.0,62.0,29.87,West,278,4.0,8.0,87,0.03,,,0.38,,2013-05-10 10:03:00,
2013-05-10 05:12:00,66.0,62.0,29.87,West,278,4.0,8.0,87,0.03,,,0.38,,2013-05-10 10:12:00,
2013-05-10 05:23:00,65.0,61.0,29.90,SW,228,4.0,8.0,88,0.04,,,0.40,,2013-05-10 10:23:00,
2013-05-10 05:32:00,65.0,62.0,29.89,WNW,298,3.0,8.0,89,0.03,,,0.40,,2013-05-10 10:32:00,
2013-05-10 05:42:00,65.0,62.0,29.89,WNW,298,3.0,8.0,89,0.03,,,0.40,,2013-05-10 10:42:00,
2013-05-10 05:52:00,65.0,62.0,29.89,WSW,257,1.0,4.0,90,0.03,,,0.41,,2013-05-10 10:52:00,
2013-05-10 06:02:00,65.0,62.0,29.91,West,264,0.0,5.0,90,0.03,,,0.42,,2013-05-10 11:02:00,
2013-05-10 06:12:00,65.0,62.0,29.91,West,264,0.0,5.0,90,0.03,,,0.42,,2013-05-10 11:12:00,
2013-05-10 06:22:00,65.0,62.0,29.91,West,264,0.0,2.0,90,0.02,,,0.42,,2013-05-10 11:22:00,
2013-05-10 06:32:00,65.0,62.0,29.91,West,264,0.0,1.0,90,0.03,,,0.43,,2013-05-10 11:32:00,
2013-05-10 06:42:00,65.0,62.0,29.91,West,264,0.0,1.0,90,0.03,,,0.43,,2013-05-10 11:42:00,
2013-05-10 06:51:00,65.0,62.0,29.91,West,264,0.0,0.0,90,0.03,,,0.44,,2013-05-10 11:51:00,
2013-05-10 07:01:00,64.0,62.0,29.92,NW,318,0.0,0.0,92,0.02,,,0.44,,2013-05-10 12:01:00,
2013-05-10 07:12:00,64.0,62.0,29.92,NW,318,0.0,0.0,92,0.02,,,0.44,,2013-05-10 12:12:00,
2013-05-10 07:21:00,64.0,62.0,29.93,NW,317,0.0,0.0,93,0.02,,,0.45,,2013-05-10 12:21:00,
2013-05-10 07:32:00,64.0,62.0,29.94,WSW,257,0.0,2.0,94,0.02,,,0.45,,2013-05-10 12:32:00,
2013-05-10 07:42:00,64.0,62.0,29.94,WSW,257,0.0,2.0,94,0.02,,,0.45,,2013-05-10 12:42:00,
2013-05-10 07:51:00,64.0,62.0,29.94,SW,227,0.0,2.0,93,0.02,,,0.46,,2013-05-10 12:51:00,
2013-05-10 08:01:00,65.0,63.0,29.94,SSE,165,0.0,3.0,92,0.02,,,0.46,,2013-05-10 13:01:00,
2013-05-10 08:11:00,65.0,63.0,29.94,SSE,165,0.0,3.0,92,0.02,,,0.46,,2013-05-10 13:11:00,
2013-05-10 08:21:00,66.0,63.0,29.95,SSE,163,1.0,4.0,90,0.01,,,0.46,,2013-05-10 13:21:00,
2013-05-10 08:32:00,66.0,63.0,29.96,SSW,203,3.0,6.0,89,0.02,,,0.47,,2013-05-10 13:32:00,
2013-05-10 08:41:00,66.0,63.0,29.96,SSW,203,3.0,6.0,89,0.02,,,0.47,,2013-05-10 13:41:00,
2013-05-10 08:52:00,67.0,64.0,29.96,South,179,2.0,7.0,90,0.01,,,0.47,,2013-05-10 13:52:00,
2013-05-10 09:02:00,67.0,64.0,29.96,South,184,2.0,4.0,89,0.02,,,0.48,,2013-05-10 14:02:00,
2013-05-10 09:11:00,67.0,64.0,29.96,South,184,2.0,4.0,89,0.02,,,0.48,,2013-05-10 14:11:00,
2013-05-10 09:21:00,67.0,64.0,29.96,South,184,2.0,5.0,89,0.02,,,0.48,,2013-05-10 14:21:00,
2013-05-10 09:32:00,68.0,65.0,29.96,SSW,206,3.0,5.0,89,0.02,,,0.49,,2013-05-10 14:32:00,
2013-05-10 09:42:00,68.0,65.0,29.96,SSW,206,3.0,5.0,89,0.02,,,0.49,,2013-05-10 14:42:00,
2013-05-10 09:51:00,68.0,64.0,29.96,South,178,2.0,7.0,88,0.02,,,0.49,,2013-05-10 14:51:00,
2013-05-10 10:02:00,69.0,65.0,29.96,South,169,3.0,6.0,86,0.01,,,0.49,,2013-05-10 15:02:00,
2013-05-10 10:20:00,-999.0,-99.9,29.96,South,169,3.0,6.0,86,0.01,,,0.49,,2013-05-10 15:20:00,
2013-05-10 10:32:00,70.0,65.0,29.97,South,175,6.0,10.0,85,0.01,,,0.50,,2013-05-10 15:32:00,
2013-05-10 10:42:00,70.0,64.0,29.97,SSE,148,8.0,13.0,82,0.01,,,0.50,,2013-05-10 15:42:00,
2013-05-10 10:52:00,70.0,64.0,29.97,SSE,148,8.0,13.0,82,0.01,,,0.50,,2013-05-10 15:52:00,
2013-05-10 11:02:00,70.0,65.0,29.96,SE,142,9.0,14.0,84,0.02,,,0.51,,2013-05-10 16:02:00,
2013-05-10 11:12:00,70.0,65.0,29.96,SE,142,9.0,14.0,84,0.02,,,0.51,,2013-05-10 16:12:00,
2013-05-10 11:23:00,71.0,65.0,29.97,SSE,155,8.0,15.0,82,0.01,,,0.51,,2013-05-10 16:23:00,
2013-05-10 11:32:00,72.0,65.0,29.97,SE,130,9.0,17.0,79,0.01,,,0.51,,2013-05-10 16:32:00,
2013-05-10 11:42:00,73.0,66.0,29.98,SSW,195,7.0,13.0,79,0.02,,,0.52,,2013-05-10 16:42:00,
2013-05-10 11:52:00,73.0,66.0,29.98,SSW,195,7.0,13.0,79,0.02,,,0.52,,2013-05-10 16:52:00,
2013-05-10 12:02:00,72.0,65.0,29.97,SSE,166,9.0,15.0,78,0.01,,,0.52,,2013-05-10 17:02:00,
2013-05-10 12:12:00,72.0,65.0,29.97,SSE,166,9.0,15.0,78,0.01,,,0.52,,2013-05-10 17:12:00,
2013-05-10 12:22:00,73.0,66.0,29.96,South,180,8.0,15.0,80,0.01,,,0.52,,2013-05-10 17:22:00,
2013-05-10 12:32:00,73.0,66.0,29.96,SSE,166,9.0,15.0,78,0.01,,,0.52,,2013-05-10 17:32:00,
2013-05-10 12:42:00,73.0,66.0,29.96,SSE,164,8.0,16.0,80,0.01,,,0.53,,2013-05-10 17:42:00,
2013-05-10 12:52:00,73.0,66.0,29.96,SSE,164,8.0,16.0,80,0.01,,,0.53,,2013-05-10 17:52:00,
2013-05-10 13:10:00,-999.0,-99.9,29.97,South,172,7.0,14.0,80,0.01,,,0.53,,2013-05-10 18:10:00,
2013-05-10 13:22:00,74.0,68.0,29.96,South,171,9.0,15.0,81,0.01,,,0.53,,2013-05-10 18:22:00,
2013-05-10 13:34:00,74.0,66.0,29.95,SSW,203,7.0,14.0,77,0.01,,,0.53,,2013-05-10 18:34:00,
2013-05-10 13:43:00,75.0,68.0,29.95,South,173,6.0,11.0,80,0.01,,,0.54,,2013-05-10 18:43:00,
2013-05-10 13:54:00,75.0,68.0,29.95,South,173,6.0,11.0,80,0.01,,,0.54,,2013-05-10 18:54:00,
2013-05-10 14:02:00,75.0,66.0,29.93,SSE,152,8.0,13.0,74,0.01,,,0.54,,2013-05-10 19:02:00,
2013-05-10 14:11:00,75.0,66.0,29.93,SSE,152,8.0,13.0,74,0.01,,,0.54,,2013-05-10 19:11:00,
2013-05-10 14:21:00,75.0,67.0,29.93,South,186,8.0,15.0,76,0.01,,,0.54,,2013-05-10 19:21:00,
2013-05-10 14:32:00,75.0,67.0,29.93,South,178,6.0,13.0,77,0.01,,,0.54,,2013-05-10 19:32:00,
2013-05-10 14:42:00,75.0,67.0,29.93,South,178,6.0,13.0,77,0.01,,,0.54,,2013-05-10 19:42:00,
2013-05-10 14:52:00,75.0,67.0,29.92,South,191,6.0,10.0,77,0.01,,,0.55,,2013-05-10 19:52:00,
2013-05-10 15:01:00,75.0,67.0,29.92,South,173,8.0,13.0,77,0.01,,,0.55,,2013-05-10 20:01:00,
2013-05-10 15:12:00,75.0,67.0,29.92,South,173,8.0,13.0,77,0.01,,,0.55,,2013-05-10 20:12:00,
2013-05-10 15:21:00,74.0,66.0,29.91,SSW,204,7.0,16.0,77,0.01,,,0.55,,2013-05-10 20:21:00,
2013-05-10 15:32:00,75.0,68.0,29.91,SSW,213,4.0,10.0,79,0.01,,,0.55,,2013-05-10 20:32:00,
2013-05-10 15:41:00,75.0,68.0,29.91,SSW,213,4.0,10.0,79,0.01,,,0.55,,2013-05-10 20:41:00,
2013-05-10 15:52:00,74.0,67.0,29.90,South,182,7.0,14.0,78,0.00,,,0.55,,2013-05-10 20:52:00,
2013-05-10 16:02:00,74.0,67.0,29.89,South,191,7.0,13.0,79,0.00,,,0.55,,2013-05-10 21:02:00,
2013-05-10 16:11:00,74.0,67.0,29.89,South,191,7.0,13.0,79,0.00,,,0.55,,2013-05-10 21:11:00,
2013-05-10 16:24:00,74.0,67.0,29.89,SSW,207,5.0,10.0,78,0.00,,,0.55,,2013-05-10 21:24:00,
2013-05-10 16:32:00,74.0,67.0,29.88,SSW,194,7.0,12.0,80,0.01,,,0.56,,2013-05-10 21:32:00,
2013-05-10 16:43:00,74.0,67.0,29.88,SSW,194,7.0,12.0,80,0.01,,,0.56,,2013-05-10 21:43:00,
2013-05-10 16:52:00,73.0,66.0,29.87,SSW,198,7.0,12.0,80,0.01,,,0.56,,2013-05-10 21:52:00,
2013-05-10 17:02:00,73.0,67.0,29.87,SW,226,5.0,15.0,81,0.01,,,0.56,,2013-05-10 22:02:00,
2013-05-10 17:13:00,73.0,67.0,29.87,SW,226,5.0,15.0,81,0.01,,,0.56,,2013-05-10 22:13:00,
2013-05-10 17:22:00,73.0,66.0,29.86,SSW,194,5.0,11.0,80,0.01,,,0.56,,2013-05-10 22:22:00,
2013-05-10 17:32:00,74.0,67.0,29.87,SW,221,5.0,8.0,79,0.00,,,0.56,,2013-05-10 22:32:00,
2013-05-10 17:42:00,74.0,67.0,29.87,SW,221,5.0,8.0,79,0.00,,,0.56,,2013-05-10 22:42:00,
2013-05-10 17:52:00,74.0,67.0,29.87,South,180,4.0,7.0,80,0.00,,,0.56,,2013-05-10 22:52:00,
2013-05-10 18:02:00,75.0,68.0,29.86,South,186,4.0,9.0,80,0.00,,,0.56,,2013-05-10 23:02:00,
2013-05-10 18:12:00,75.0,68.0,29.86,South,186,4.0,9.0,80,0.00,,,0.56,,2013-05-10 23:12:00,
2013-05-10 18:22:00,74.0,68.0,29.86,SSW,201,3.0,10.0,81,0.00,,,0.56,,2013-05-10 23:22:00,
2013-05-10 18:33:00,74.0,67.0,29.87,SSW,205,6.0,11.0,80,0.00,,,0.56,,2013-05-10 23:33:00,
2013-05-10 18:41:00,74.0,67.0,29.87,SSW,205,6.0,11.0,80,0.00,,,0.56,,2013-05-10 23:41:00,
2013-05-10 18:52:00,74.0,67.0,29.87,SSW,205,5.0,8.0,80,0.00,,,0.56,,2013-05-10 23:52:00,
2013-05-10 19:02:00,74.0,68.0,29.87,SSW,192,2.0,8.0,81,0.00,,,0.56,,2013-05-11 00:02:00,
2013-05-10 19:11:00,74.0,68.0,29.87,SSW,192,2.0,8.0,81,0.00,,,0.56,,2013-05-11 00:11:00,
2013-05-10 19:21:00,74.0,67.0,29.88,South,176,2.0,7.0,80,0.00,,,0.56,,2013-05-11 00:21:00,
2013-05-10 19:32:00,73.0,67.0,29.88,South,185,2.0,7.0,81,0.00,,,0.56,,2013-05-11 00:32:00,
2013-05-10 19:42:00,73.0,67.0,29.88,South,185,2.0,7.0,81,0.00,,,0.56,,2013-05-11 00:42:00,
2013-05-10 19:51:00,73.0,67.0,29.88,SSW,207,2.0,5.0,82,0.01,,,0.56,,2013-05-11 00:51:00,
2013-05-10 20:01:00,72.0,67.0,29.88,South,171,4.0,8.0,83,0.01,,,0.56,,2013-05-11 01:01:00,
2013-05-10 20:11:00,72.0,67.0,29.88,South,171,4.0,8.0,83,0.01,,,0.56,,2013-05-11 01:11:00,
2013-05-10 20:21:00,72.0,67.0,29.88,South,188,3.0,6.0,84,0.01,,,0.56,,2013-05-11 01:21:00,
2013-05-10 20:32:00,71.0,66.0,29.88,South,184,3.0,6.0,85,0.01,,,0.56,,2013-05-11 01:32:00,
2013-05-10 20:42:00,71.0,66.0,29.88,South,184,3.0,6.0,85,0.01,,,0.56,,2013-05-11 01:42:00,
2013-05-10 20:52:00,71.0,67.0,29.90,SSW,205,3.0,6.0,86,0.00,,,0.56,,2013-05-11 01:52:00,
2013-05-10 21:02:00,71.0,67.0,29.91,SW,215,3.0,5.0,86,0.00,,,0.56,,2013-05-11 02:02:00,
2013-05-10 21:11:00,71.0,67.0,29.91,SW,215,3.0,5.0,86,0.00,,,0.56,,2013-05-11 02:11:00,
2013-05-10 21:22:00,70.0,66.0,29.92,SSW,205,1.0,6.0,87,0.00,,,0.56,,2013-05-11 02:22:00,
2013-05-10 21:32:00,70.0,66.0,29.92,SW,229,1.0,4.0,88,0.00,,,0.56,,2013-05-11 02:32:00,
2013-05-10 21:42:00,70.0,66.0,29.92,SW,229,1.0,4.0,88,0.00,,,0.56,,2013-05-11 02:42:00,
2013-05-10 21:52:00,69.0,66.0,29.94,SSW,194,0.0,3.0,89,0.00,,,0.56,,2013-05-11 02:52:00,
2013-05-10 22:01:00,69.0,66.0,29.95,SSW,194,1.0,2.0,90,0.00,,,0.56,,2013-05-11 03:01:00,
2013-05-10 22:11:00,69.0,66.0,29.95,SSW,194,1.0,2.0,90,0.00,,,0.56,,2013-05-11 03:11:00,
2013-05-10 22:21:00,69.0,67.0,29.97,NW,324,4.0,5.0,92,0.00,,,0.56,,2013-05-11 03:21:00,
2013-05-10 22:33:00,69.0,65.0,29.98,NNW,346,5.0,9.0,87,0.00,,,0.56,,2013-05-11 03:33:00,
2013-05-10 22:42:00,69.0,65.0,29.98,NNW,346,5.0,9.0,87,0.00,,,0.56,,2013-05-11 03:42:00,
2013-05-10 22:53:00,69.0,63.0,29.99,NW,306,6.0,14.0,80,0.00,,,0.56,,2013-05-11 03:53:00,
2013-05-10 23:02:00,68.0,62.0,29.98,West,272,2.0,4.0,81,0.00,,,0.56,,2013-05-11 04:02:00,
2013-05-10 23:12:00,68.0,62.0,29.98,West,272,2.0,4.0,81,0.00,,,0.56,,2013-05-11 04:12:00,
2013-05-10 23:23:00,67.0,61.0,29.98,SW,225,4.0,6.0,82,0.00,,,0.56,,2013-05-11 04:23:00,
2013-05-10 23:33:00,68.0,63.0,29.97,West,275,3.0,7.0,84,0.00,,,0.56,,2013-05-11 04:33:00,
2013-05-10 23:43:00,67.0,62.0,29.97,WSW,242,4.0,7.0,85,0.00,,,0.56,,2013-05-11 04:43:00,
2013-05-10 23:52:00,67.0,62.0,29.97,WSW,242,4.0,7.0,85,0.00,,,0.56,,2013-05-11 04:52:00,